When you browse on this site, cookies collect data to enhance your experience and personalize the content and advertising you see.
Visit our Privacy Policy to learn more. By continuing to use the site, you agree to this use of cookies and data.
  • In Lithuania
  • List of Countries
  • For 7 days
  • Water Temperature
  • Satellite Maps
  • Weather Map
  • Weather Widgets
  • user-avatar
    Login

    Hourly Weather Berat

    Today, 18 January, Friday

    Time Temperature Precipitation Wind Pressure Humidity
    00:00 +3°C° 0 mm 3 mps 747 mmHg 79%
    01:00 +4°C° 0 mm 3 mps 747 mmHg 84%
    02:00 +4°C° 0 mm 3 mps 746 mmHg 85%
    03:00 +4°C° 0 mm 3 mps 746 mmHg 86%
    04:00 +4°C° 0 mm 3 mps 746 mmHg 87%
    05:00 +4°C° 0 mm 3 mps 746 mmHg 87%
    06:00 +5°C° 0 mm 3 mps 746 mmHg 87%
    07:00 +5°C° 0 mm 3 mps 745 mmHg 87%
    08:00 +7°C° 0.4 mm 3 mps 745 mmHg 86%
    09:00 +7°C° 0.4 mm 3 mps 745 mmHg 85%
    10:00 +8°C° 0.4 mm 3 mps 745 mmHg 85%
    11:00 +8°C° 0.5 mm 3 mps 745 mmHg 83%
    12:00 +9°C° 0.5 mm 3 mps 745 mmHg 81%
    13:00 +9°C° 0.5 mm 3 mps 745 mmHg 80%
    14:00 +9°C° 0 mm 3 mps 745 mmHg 80%
    15:00 +9°C° 0 mm 3 mps 745 mmHg 81%
    16:00 +9°C° 0 mm 3 mps 745 mmHg 81%
    17:00 +8°C° 0 mm 3 mps 745 mmHg 82%
    18:00 +7°C° 0 mm 3 mps 745 mmHg 83%
    19:00 +5°C° 0 mm 3 mps 745 mmHg 84%
    20:00 +5°C° 0 mm 3 mps 745 mmHg 85%
    21:00 +5°C° 0 mm 3 mps 745 mmHg 85%
    22:00 +5°C° 0 mm 3 mps 745 mmHg 85%
    23:00 +5°C° 0 mm 3 mps 745 mmHg 85%

    Tomorrow, 19 January, Saturday

    Time Temperature Precipitation Wind Pressure Humidity
    00:00 +5°C° 0 mm 3 mps 745 mmHg 86%
    01:00 +5°C° 0 mm 3 mps 745 mmHg 86%
    02:00 +5°C° 0 mm 3 mps 745 mmHg 87%
    03:00 +5°C° 0 mm 3 mps 745 mmHg 87%
    04:00 +5°C° 0 mm 3 mps 744 mmHg 87%
    05:00 +5°C° 0 mm 3 mps 745 mmHg 87%
    06:00 +5°C° 0 mm 3 mps 745 mmHg 86%
    07:00 +5°C° 0 mm 3 mps 745 mmHg 86%
    08:00 +7°C° 0 mm 2 mps 745 mmHg 82%
    09:00 +9°C° 0 mm 2 mps 745 mmHg 77%
    10:00 +12°C° 0 mm 2 mps 745 mmHg 73%
    11:00 +13°C° 0 mm 2 mps 745 mmHg 70%
    12:00 +13°C° 0 mm 2 mps 745 mmHg 67%
    13:00 +14°C° 0 mm 2 mps 744 mmHg 64%
    14:00 +13°C° 0.2 mm 2 mps 744 mmHg 69%
    15:00 +12°C° 0.2 mm 2 mps 744 mmHg 74%
    16:00 +10°C° 0.2 mm 2 mps 744 mmHg 79%
    17:00 +10°C° 0.1 mm 2 mps 744 mmHg 81%
    18:00 +9°C° 0.1 mm 2 mps 744 mmHg 82%
    19:00 +8°C° 0.1 mm 2 mps 744 mmHg 83%
    20:00 +8°C° 0.1 mm 2 mps 744 mmHg 82%
    21:00 +8°C° 0.1 mm 2 mps 744 mmHg 81%
    22:00 +8°C° 0.1 mm 2 mps 744 mmHg 81%
    23:00 +8°C° 0.1 mm 2 mps 744 mmHg 81%

    Day after tomorrow, 20 January, Sunday

    Time Temperature Precipitation Wind Pressure Humidity
    00:00 +7°C° 0.1 mm 2 mps 744 mmHg 80%
    01:00 +7°C° 0.1 mm 2 mps 744 mmHg 80%
    02:00 +7°C° 0 mm 2 mps 743 mmHg 81%
    03:00 +7°C° 0 mm 2 mps 743 mmHg 81%
    04:00 +6°C° 0 mm 2 mps 743 mmHg 81%
    05:00 +6°C° 0 mm 2 mps 743 mmHg 81%
    06:00 +6°C° 0 mm 2 mps 743 mmHg 81%
    07:00 +6°C° 0 mm 2 mps 743 mmHg 82%
    08:00 +8°C° 0 mm 2 mps 743 mmHg 78%
    09:00 +9°C° 0 mm 2 mps 744 mmHg 74%
    10:00 +12°C° 0 mm 2 mps 744 mmHg 70%
    11:00 +12°C° 0.3 mm 2 mps 744 mmHg 69%
    12:00 +12°C° 0.3 mm 1 mps 743 mmHg 69%
    13:00 +13°C° 0.3 mm 1 mps 743 mmHg 68%
    14:00 +12°C° 0.7 mm 1 mps 743 mmHg 73%
    15:00 +12°C° 0.7 mm 1 mps 743 mmHg 78%
    16:00 +11°C° 0.7 mm 1 mps 743 mmHg 84%
    17:00 +10°C° 0.1 mm 1 mps 743 mmHg 86%
    18:00 +9°C° 0.1 mm 1 mps 743 mmHg 88%
    19:00 +7°C° 0.1 mm 0 mps 744 mmHg 91%
    20:00 +8°C° 0 mm 1 mps 744 mmHg 90%
    21:00 +8°C° 0 mm 1 mps 744 mmHg 89%
    22:00 +7°C° 0 mm 1 mps 744 mmHg 89%
    23:00 +7°C° 0 mm 1 mps 744 mmHg 88%

    21 January, Monday

    Time Temperature Precipitation Wind Pressure Humidity
    00:00 +7°C° 0 mm 1 mps 744 mmHg 87%
    01:00 +7°C° 0 mm 1 mps 745 mmHg 86%
    02:00 +7°C° 0 mm 1 mps 744 mmHg 85%
    03:00 +6°C° 0 mm 1 mps 744 mmHg 85%
    04:00 +6°C° 0 mm 1 mps 744 mmHg 84%
    05:00 +5°C° 0 mm 2 mps 744 mmHg 83%
    06:00 +5°C° 0 mm 2 mps 745 mmHg 83%
    07:00 +5°C° 0 mm 2 mps 745 mmHg 82%
    08:00 +7°C° 0 mm 2 mps 745 mmHg 77%
    09:00 +9°C° 0 mm 1 mps 745 mmHg 72%
    10:00 +11°C° 0 mm 1 mps 746 mmHg 67%
    11:00 +12°C° 0 mm 1 mps 745 mmHg 63%
    12:00 +12°C° 0 mm 0 mps 745 mmHg 59%
    13:00 +12°C° 0 mm 0 mps 745 mmHg 56%
    14:00 +12°C° 0 mm 0 mps 745 mmHg 59%
    15:00 +11°C° 0 mm 0 mps 745 mmHg 62%
    16:00 +11°C° 0 mm 0 mps 745 mmHg 65%
    17:00 +11°C° 0 mm 1 mps 745 mmHg 68%
    18:00 +10°C° 0 mm 1 mps 745 mmHg 71%
    19:00 +8°C° 0 mm 2 mps 746 mmHg 73%
    20:00 +8°C° 0 mm 2 mps 746 mmHg 74%
    21:00 +7°C° 0 mm 2 mps 746 mmHg 76%
    22:00 +7°C° 0 mm 2 mps 746 mmHg 77%
    23:00 +7°C° 0 mm 2 mps 746 mmHg 77%

    22 January, Tuesday

    Time Temperature Precipitation Wind Pressure Humidity
    00:00 +7°C° 0 mm 2 mps 746 mmHg 77%
    01:00 +7°C° 0 mm 2 mps 745 mmHg 77%
    02:00 +6°C° 0 mm 2 mps 745 mmHg 78%
    03:00 +5°C° 0 mm 3 mps 745 mmHg 78%
    04:00 +5°C° 0 mm 3 mps 744 mmHg 78%
    05:00 +5°C° 0 mm 3 mps 744 mmHg 78%
    06:00 +5°C° 0 mm 3 mps 744 mmHg 78%
    07:00 +5°C° 0 mm 3 mps 744 mmHg 77%
    08:00 +7°C° 0 mm 3 mps 744 mmHg 74%
    09:00 +8°C° 0 mm 3 mps 743 mmHg 71%
    10:00 +9°C° 0 mm 3 mps 743 mmHg 68%
    11:00 +10°C° 0 mm 3 mps 742 mmHg 65%
    12:00 +11°C° 0 mm 3 mps 742 mmHg 62%
    13:00 +12°C° 0 mm 4 mps 741 mmHg 59%
    14:00 +11°C° 0.1 mm 3 mps 740 mmHg 62%
    15:00 +10°C° 0.1 mm 3 mps 739 mmHg 66%
    16:00 +10°C° 0.1 mm 3 mps 739 mmHg 70%
    17:00 +9°C° 0.3 mm 3 mps 738 mmHg 73%
    18:00 +9°C° 0.3 mm 3 mps 738 mmHg 75%
    19:00 +8°C° 0.3 mm 3 mps 737 mmHg 78%
    20:00 +8°C° 0.4 mm 3 mps 737 mmHg 78%
    21:00 +7°C° 0.4 mm 4 mps 736 mmHg 78%
    22:00 +7°C° 0.4 mm 4 mps 736 mmHg 78%
    23:00 +7°C° 0 mm 4 mps 736 mmHg 79%

    23 January, Wednesday

    Time Temperature Precipitation Wind Pressure Humidity
    00:00 +7°C° 0 mm 4 mps 735 mmHg 81%
    01:00 +6°C° 0 mm 4 mps 735 mmHg 82%
    02:00 +6°C° 0.3 mm 4 mps 734 mmHg 84%
    03:00 +6°C° 0.3 mm 4 mps 734 mmHg 86%
    04:00 +7°C° 0.3 mm 3 mps 733 mmHg 88%
    05:00 +7°C° 0.6 mm 3 mps 733 mmHg 87%
    06:00 +6°C° 0.6 mm 4 mps 732 mmHg 86%
    07:00 +6°C° 0.6 mm 4 mps 732 mmHg 86%
    08:00 +7°C° 0.3 mm 4 mps 732 mmHg 82%
    09:00 +7°C° 0.3 mm 4 mps 732 mmHg 79%
    10:00 +8°C° 0.3 mm 5 mps 731 mmHg 76%
    11:00 +8°C° 2.1 mm 5 mps 731 mmHg 79%
    12:00 +7°C° 2.1 mm 6 mps 730 mmHg 82%
    13:00 +7°C° 2.1 mm 6 mps 730 mmHg 85%
    14:00 +7°C° 1.8 mm 5 mps 730 mmHg 87%
    15:00 +7°C° 1.8 mm 4 mps 730 mmHg 88%
    16:00 +8°C° 1.8 mm 3 mps 730 mmHg 90%
    17:00 +8°C° 0.8 mm 3 mps 730 mmHg 89%
    18:00 +7°C° 0.8 mm 3 mps 730 mmHg 88%
    19:00 +7°C° 0.8 mm 3 mps 730 mmHg 86%
    20:00 +7°C° 0.1 mm 3 mps 730 mmHg 86%
    21:00 +7°C° 0.1 mm 3 mps 730 mmHg 86%
    22:00 +5°C° 0.1 mm 3 mps 729 mmHg 85%
    23:00 +5°C° 0.5 mm 3 mps 729 mmHg 86%
    Show more